EW5738 Ashgrove AU current weather conditions

sailwx.info

Wind from 355 at 4 knots gusting 11

Air temperature 19.4° C
Dewpoint 14.3° C

Last reported at 2020-Aug-12 06:00 UTC.
Time now 2020-Aug-12 06:34 UTC

Location: S 27°27' E 152°58'.
View on Google Maps.

See reports from other nearby stations

  
Tides and Currents Weather Stations Pressure Air Temp Water Temp Dewpoint Dewpoint Depression Visibility Wind Speed Wind Dir Waves Ship Positions
date/time (UTC)wind fromknots sea level pressurealtimeterstation pressurevisibilityair tempwater tempwave heightnotes
2020-Aug-12 06:00 355 4 gusting 11 19.4
2020-Aug-12 05:45 053 2 gusting 7 20.0
2020-Aug-12 05:32 101 1 gusting 8 20.0
2020-Aug-12 05:16 022 2 gusting 8 19.4
2020-Aug-12 05:01 011 19.4
2020-Aug-12 04:47 010 0 gusting 7 20.0
2020-Aug-12 04:31 034 0 gusting 6 20.0
2020-Aug-12 04:16 061 20.0
2020-Aug-12 04:01 022 20.0
2020-Aug-12 03:46 028 20.0
2020-Aug-12 03:31 043 2 gusting 6 20.6
2020-Aug-12 03:16 035 1 gusting 8 20.6
2020-Aug-12 03:02 036 21.1
2020-Aug-12 02:46 097 20.6
2020-Aug-12 02:31 063 21.7
2020-Aug-12 02:16 023 22.2
2020-Aug-12 02:01 023 21.7
2020-Aug-12 01:45 024 1 gusting 6 21.7
2020-Aug-12 01:30 322 20.0
2020-Aug-12 01:15 360 20.6
2020-Aug-12 01:00 340 20.6
2020-Aug-12 00:45 140 20.6
2020-Aug-12 00:31 142 20.0
2020-Aug-12 00:15 142 19.4
2020-Aug-12 00:00 143 19.4
2020-Aug-11 23:45 140 0 gusting 6 18.9
2020-Aug-11 23:30 040 18.3
2020-Aug-11 23:01 351 17.2
2020-Aug-11 22:46 351 16.1
2020-Aug-11 22:31 351 15.6
2020-Aug-11 22:17 351 14.4
2020-Aug-11 21:46 351 12.8
2020-Aug-11 21:30 351 12.2
2020-Aug-11 21:15 351 11.7
2020-Aug-11 21:01 351 11.1
2020-Aug-11 20:46 351 11.1
2020-Aug-11 20:30 351 11.1
2020-Aug-11 20:16 351 11.1
2020-Aug-11 20:00 351 10.6
2020-Aug-11 19:45 351 11.1
2020-Aug-11 19:30 351 11.1
2020-Aug-11 19:15 351 10.6
2020-Aug-11 19:00 351 10.6
2020-Aug-11 18:45 351 10.6
2020-Aug-11 18:30 351 10.6
2020-Aug-11 18:15 355 10.6
2020-Aug-11 18:00 355 10.6
2020-Aug-11 17:45 355 11.7
2020-Aug-11 17:30 355 11.7
2020-Aug-11 17:17 355 11.7
2020-Aug-11 17:01 355 11.7
2020-Aug-11 16:46 355 10.6
2020-Aug-11 16:31 355 10.6
2020-Aug-11 16:16 355 10.6
2020-Aug-11 16:02 355 11.1
2020-Aug-11 15:46 355 11.1
2020-Aug-11 15:32 355 11.7
2020-Aug-11 15:17 355 11.7
2020-Aug-11 15:01 010 11.1
2020-Aug-11 14:46 010 11.1
2020-Aug-11 14:31 010 11.1
2020-Aug-11 14:16 011 11.1
2020-Aug-11 14:01 011 11.7
2020-Aug-11 13:46 011 11.7
2020-Aug-11 13:30 011 11.7
2020-Aug-11 13:16 011 12.8
2020-Aug-11 13:01 024 12.2
2020-Aug-11 12:45 024 12.2
2020-Aug-11 12:31 024 12.8
2020-Aug-11 12:15 036 12.8
2020-Aug-11 12:00 034 14.4
2020-Aug-11 11:46 034 13.9
2020-Aug-11 11:31 054 13.3
2020-Aug-11 11:16 054 14.4
2020-Aug-11 11:01 054 13.9
2020-Aug-11 10:45 054 15.0
2020-Aug-11 10:31 054 14.4
2020-Aug-11 10:16 054 15.6
2020-Aug-11 10:00 054 16.1
2020-Aug-11 09:46 054 16.1
2020-Aug-11 09:30 053 16.7
2020-Aug-11 09:15 054 16.7
2020-Aug-11 09:00 054 16.1
2020-Aug-11 08:45 052 16.7
2020-Aug-11 08:30 013 17.2
2020-Aug-11 08:15 013 17.2
2020-Aug-11 08:00 013 17.2
2020-Aug-11 07:45 013 17.8
2020-Aug-11 07:30 011 18.3
2020-Aug-11 07:15 027 18.3
2020-Aug-11 07:00 009 18.9
2020-Aug-11 06:46 032 19.4
2020-Aug-11 06:30 062 20.0
2020-Aug-11 06:15 058 20.0
2020-Aug-11 06:00 082 20.0
2020-Aug-11 05:45 067 20.6
2020-Aug-11 05:30 005 21.1
2020-Aug-11 05:15 005 20.6
2020-Aug-11 05:00 124 21.1
2020-Aug-11 04:45 124 21.1
2020-Aug-11 04:30 223 21.1
2020-Aug-11 04:15 223 21.7
2020-Aug-11 04:00 134 22.2
2020-Aug-11 03:45 144 1 gusting 7 23.3
2020-Aug-11 03:31 168 1 gusting 7 22.8
2020-Aug-11 03:17 152 21.7
2020-Aug-11 03:01 316 21.1
2020-Aug-11 02:46 247 22.2
2020-Aug-11 02:31 215 0 gusting 5 22.2
2020-Aug-11 02:16 132 21.1
2020-Aug-11 02:01 099 21.7
2020-Aug-11 01:45 184 21.1
2020-Aug-11 01:31 178 20.6
2020-Aug-11 01:15 115 0 gusting 7 20.6
2020-Aug-11 01:00 172 1 gusting 8 20.0
2020-Aug-11 00:46 167 20.0
2020-Aug-11 00:30 199 3 gusting 8 19.4
2020-Aug-11 00:15 142 0 gusting 9 19.4
2020-Aug-11 00:00 132 2 gusting 13 18.9
2020-Aug-10 23:48 170 4 gusting 9 18.3
2020-Aug-10 23:31 202 4 gusting 13 17.8
2020-Aug-10 23:16 194 2 gusting 10 17.8
2020-Aug-10 23:02 211 1 gusting 11 17.2
2020-Aug-10 22:46 169 17.2
2020-Aug-10 22:31 175 3 gusting 11 16.7
2020-Aug-10 22:16 207 1 gusting 8 15.6
2020-Aug-10 22:01 236 0 gusting 6 14.4
2020-Aug-10 21:45 209 1 gusting 8 14.4
2020-Aug-10 21:30 196 13.9
2020-Aug-10 21:15 254 12.8
2020-Aug-10 21:00 296 12.2
2020-Aug-10 20:45 290 12.2
2020-Aug-10 20:30 263 12.2
2020-Aug-10 20:15 223 12.2
2020-Aug-10 20:00 262 12.2
2020-Aug-10 19:45 263 0 gusting 6 12.8
2020-Aug-10 19:33 288 0 gusting 12 12.8
2020-Aug-10 19:17 241 0 gusting 8 12.8
2020-Aug-10 19:01 251 1 gusting 9 12.8
2020-Aug-10 18:46 248 4 gusting 13 12.8
2020-Aug-10 18:32 242 0 gusting 13 12.8
2020-Aug-10 18:17 252 0 gusting 10 12.8
2020-Aug-10 18:01 268 2 gusting 12 12.2
2020-Aug-10 17:46 265 1 gusting 8 12.8
2020-Aug-10 17:31 281 1 gusting 7 12.8
2020-Aug-10 17:16 246 2 gusting 10 12.8
2020-Aug-10 17:01 287 1 gusting 9 12.8
2020-Aug-10 16:45 235 0 gusting 8 12.8
2020-Aug-10 16:31 254 0 gusting 6 12.8
2020-Aug-10 16:15 292 2 gusting 10 12.8
2020-Aug-10 16:00 266 1 gusting 9 12.8
2020-Aug-10 15:46 292 1 gusting 10 12.8
2020-Aug-10 15:30 260 1 gusting 9 12.8
2020-Aug-10 15:15 284 12.8
2020-Aug-10 15:00 281 1 gusting 9 12.8
2020-Aug-10 14:45 281 4 gusting 10 12.8
2020-Aug-10 14:30 264 1 gusting 9 12.8
2020-Aug-10 14:15 237 1 gusting 9 12.8
2020-Aug-10 14:00 257 2 gusting 10 12.8
2020-Aug-10 13:45 252 1 gusting 9 13.3
2020-Aug-10 13:30 265 2 gusting 10 13.3
2020-Aug-10 13:15 279 5 gusting 12 13.3
2020-Aug-10 13:00 287 1 gusting 9 13.3
2020-Aug-10 12:45 295 0 gusting 9 13.3
2020-Aug-10 12:30 236 3 gusting 13 13.3
2020-Aug-10 12:18 262 2 gusting 13 13.3
2020-Aug-10 12:02 255 4 gusting 17 13.3
2020-Aug-10 11:47 265 1 gusting 11 13.3
2020-Aug-10 11:16 271 0 gusting 15 13.3
2020-Aug-10 11:01 271 2 gusting 19 13.3
2020-Aug-10 10:48 257 4 gusting 13 13.9
2020-Aug-10 10:31 277 4 gusting 12 13.9
2020-Aug-10 10:16 273 3 gusting 17 13.9
2020-Aug-10 10:01 254 4 gusting 12 13.9
2020-Aug-10 09:46 294 3 gusting 9 13.3
2020-Aug-10 09:31 280 1 gusting 18 13.3
2020-Aug-10 09:15 250 4 gusting 16 13.3
2020-Aug-10 09:00 266 1 gusting 11 13.3
2020-Aug-10 08:46 268 2 gusting 12 13.3
2020-Aug-10 08:31 252 3 gusting 17 13.3
2020-Aug-10 08:16 278 1 gusting 13 13.9
2020-Aug-10 08:01 277 2 gusting 16 13.9
2020-Aug-10 07:46 295 5 gusting 16 13.9
2020-Aug-10 07:31 272 0 gusting 9 13.9
2020-Aug-10 07:15 246 13.9
2020-Aug-10 07:00 242 3 gusting 15 14.4
2020-Aug-10 06:45 254 3 gusting 17 14.4
2020-Aug-10 06:30 244 5 gusting 15 15.0
2020-Aug-10 06:15 225 1 gusting 17 15.0
2020-Aug-10 06:00 232 5 gusting 19 15.0